BREEZE-M R/B, 40985

Orbit data source: Space-Track

BREEZE-M R/B, 40985 is space debris in HEO originally from a launch on Fri, 16 Oct 2015 UTC launched from the Tyuratam Missile And Space Complex (TTMTR). Debris objects in space refer to the collection of defunct objects orbiting the Earth. Examples of debris include non-operational satellites, rocket bodies, and fragments generated from explosions, collisions, or faulty payload assembly.

Loading next visibility...
Identifier
40985, 2015-060B
Orbit
HEO
Country
Flag of CISCIS
Related business
Manufacturer
Khrunichev
Mission
Spacecraft
Bus & Motor
BRIZ, Unknown motor
Mass
~1,600 kg wet, 1,600 kg dry
Launch date (UTC)
2015-10-16 (11 years ago)
Launch vehicle
Unknown
Launch site
Tyuratam Missile And Space Complex (TTMTR)
Object type
Payload
Rocket body
Debris
Shape & HBR
Cyl, 2.0 m
Radar Cross Section
15.135 m², Large (>1 m²)

Expand to show TLE details & history
Last TLE update: 3 days ago

TLE from 3 days ago
0 BREEZE-M R/B
1 40985U 15060B   26170.69478933 -.00000114  00000-0  00000-0 0  9990
2 40985  13.5676 304.1759 4774005  52.6018 342.0006  1.91626663 74729
Epoch: 2026-06-19T16:40Z
TLE epoch observation values (Epoch: 2026-06-19T16:40:29.798Z)
Latitude
0.00001°
Longitude
146.17259°
Altitude
10,031.371 km
Speed
5.833 km/s
True Right ascension
20h 16m 52s
True Declination
0° 00' 00"
Sunlit
Object was in daylight at epoch
Visualization orbit readout
Latitude
Unknown
Longitude
Unknown
Altitude
Unknown
Speed
Unknown
Apparent Right ascension
Unknown
Apparent Declination
Unknown
Sunlit
N/A
Visualization observer readout
Local Sidereal Time
21:23:43
Azimuth
Unknown
Elevation
Unknown
Doppler factor
Unknown
Orbital elements
Apogee altitude
34,076.12 km
Perigee altitude
7,931.71 km
Semi-major axis
27,382.052 km
Eccentricity
0.4774
Inclination
13.5676°
RAAN
304.1759°
Arg. of periapsis
52.6018°
True anomaly
307.30139°
Mean anomaly
342.0006°
Eccentric anomaly
327.172°
Mean motion
0.47901 °/min
Orbital period
751.55 mins
BSTAR
0
Loading maneuver chart data...
Computing Atmospheric mass density...
Loading historical data...
Loading historical data...
Loading historical data...
Loading historical data...
Loading historical data...
Loading historical data...
Loading historical data...
Other satellites on launch #60 in the year 2015 (2015-10-16 UTC)

Documentation

Showing up to 5 results
|